Hourly Data Report for July 30, 2006

TORONTO CITY
ONTARIO

43°40'00.000" N
79°24'00.000" W
112.50 m
6158355
71508
XTO

Download Data

Hourly Data (July 2006)
Hourly Data Report for July 30, 2006
TIME
LST
Temp Definition
°C
Dew Point Definition
°C
Rel Hum Definition
%
Precip. Amount Definition
mm

Wind Dir Definition
10's deg

Wind Spd Definition
km/h
Visibility Definition
km
Stn Press Definition
kPa
Hmdx Definition


Wind Chill Definition


Weather Definition


00:00 23.0 19.5 81   LegendMM LegendMM   99.80 30   LegendNANA
01:00 22.4 19.7 85   LegendMM LegendMM   99.79 30   LegendNANA
02:00 21.5 19.9 91   LegendMM LegendMM   99.79 29   LegendNANA
03:00 21.2 20.0 93   LegendMM LegendMM   99.79 29   LegendNANA
04:00 20.9 19.7 93   LegendMM LegendMM   99.82 28   LegendNANA
05:00 20.8 19.8 94   LegendMM LegendMM   99.81 28   LegendNANA
06:00 21.1 20.2 95   LegendMM LegendMM   99.83 29   LegendNANA
07:00 21.7 20.1 91   LegendMM LegendMM   99.88 29   LegendNANA
08:00 22.7 20.0 85   LegendMM LegendMM   99.90 30   LegendNANA
09:00 23.4 20.4 83   LegendMM LegendMM   99.87 31   LegendNANA
10:00 23.7 19.7 78   LegendMM LegendMM   99.89 31   LegendNANA
11:00 23.6 19.9 80   LegendMM LegendMM   99.85 31   LegendNANA
12:00 25.1 20.9 78   LegendMM LegendMM   99.88 33   LegendNANA
13:00 25.9 21.1 75   LegendMM LegendMM   99.83 34   LegendNANA
14:00 23.8 20.8 83   LegendMM LegendMM   99.78 32   LegendNANA
15:00 25.5 21.5 79   LegendMM LegendMM   99.70 34   LegendNANA
16:00 25.1 20.7 77   LegendMM LegendMM   99.66 33   LegendNANA
17:00 24.5 21.2 82   LegendMM LegendMM   99.60 33   LegendNANA
18:00 24.4 20.9 81   LegendMM LegendMM   99.62 33   LegendNANA
19:00 24.5 21.3 82   LegendMM LegendMM   99.60 33   LegendNANA
20:00 24.4 21.0 81   LegendMM LegendMM   99.54 33   LegendNANA
21:00 24.0 21.0 83   LegendMM LegendMM   99.58 32   LegendNANA
22:00 23.6 21.5 88   LegendMM LegendMM   99.59 32   LegendNANA
23:00 23.2 21.9 92   LegendMM LegendMM   99.61 32   LegendNANA

Notes on Data Quality.

Legend

  • E = Estimated
  • M = Missing
  • NA = Not Available*
  • [empty] = Indicates an unobserved value
Date modified: